COSMOS 1275 DEB, 39968

Orbit data source: Space-Track

COSMOS 1275 DEB, 39968 is space debris in LEO originally from a launch on Thu, 04 Jun 1981 UTC launched from the Plesetsk Missile And Space Complex (PKMTR). Debris objects in space refer to the collection of defunct objects orbiting the Earth. Examples of debris include non-operational satellites, rocket bodies, and fragments generated from explosions, collisions, or faulty payload assembly.

Loading next visibility...
Identifier
39968, 1981-053PE
Orbit
LEO
Country
Flag of CISCIS
Related business
Manufacturer
Unknown
Mission
Spacecraft
Bus & Motor
Unknown
Mass
Unknown
Launch date (UTC)
1981-06-04 (45 years ago)
Launch vehicle
Unknown
Launch site
Plesetsk Missile And Space Complex (PKMTR)
Object type
Payload
Rocket body
Debris
Shape & HBR
Unknown shape, 0.1 m
Radar Cross Section
Small (<0.1 m²)

Expand to show TLE details & history
Last TLE update: 2 days ago

TLE from 2 days ago
0 COSMOS 1275 DEB
1 39968U 81053PE  26102.07560644  .00001080  00000-0  10180-2 0  9996
2 39968  83.1465  34.3775 0073799 235.6428 123.7736 13.79292629 52756
Epoch: 2026-04-12T01:48Z
TLE epoch observation values (Epoch: 2026-04-12T01:48:52.396Z)
Latitude
0.00004°
Longitude
166.87342°
Altitude
999.719 km
Speed
7.337 km/s
True Right ascension
02h 17m 30s
True Declination
0° 00' 00"
Sunlit
Object was in daylight at epoch
Visualization orbit readout
Latitude
Unknown
Longitude
Unknown
Altitude
Unknown
Speed
Unknown
Apparent Right ascension
Unknown
Apparent Declination
Unknown
Sunlit
N/A
Visualization observer readout
Local Sidereal Time
19:35:08
Azimuth
Unknown
Elevation
Unknown
Doppler factor
Unknown
Orbital elements
Apogee altitude
1,017.712 km
Perigee altitude
909.351 km
Semi-major axis
7,341.669 km
Eccentricity
0.00738
Inclination
83.1465°
RAAN
34.3775°
Arg. of periapsis
235.6428°
True anomaly
124.47295°
Mean anomaly
123.7736°
Eccentric anomaly
124.12364°
Mean motion
3.45025 °/min
Orbital period
104.34 mins
BSTAR
0.001018
Loading maneuver chart data...
Computing Atmospheric mass density...
Loading historical data...
Loading historical data...
Loading historical data...
Loading historical data...
Loading historical data...
Loading historical data...
Loading historical data...

Documentation

Showing up to 5 results
|